x

Port Sanilac, Mi (pscm4) Weather Station

4:50pm - Tue 12th Dec 2017 All times are CST. -6 hours from GMT.

  • Wind
    13mph, 20mph gusts
  • Air Temp 15°f
  • Sea Pressure 1010.5mb
  • Port Sanilac, Mi
  • Port Sanilac, Mi

More Historic Weather Station data

Upgrade to MSW Pro to gain access to the past 30 days of data for over 8000 Wavebouys and Weather Stations around the globe.

Join

Comparision Forecast

View Surf forecast
   
Tue 12/12 4:50pm 13 20 mph 1010.5mb 15f
4:40pm 10 17 mph 1010.5mb 14f
4:30pm 11 18 mph 1010.5mb 14f
4:20pm 11 17 mph 1010.2mb 15f
4:10pm 9 17 mph 1010.2mb 14f
4:00pm 14 20 mph 1009.8mb 14f
3:50pm 15 18 mph 1009.8mb 14f
3:40pm 15 21 mph 1009.8mb 15f
3:30pm 14 21 mph 1009.8mb 15f
3:20pm 17 22 mph 1009.8mb 15f
3:10pm 15 23 mph 1009.8mb 15f
3:00pm 13 21 mph 1009.8mb 15f
2:50pm 15 28 mph 1009.5mb 15f
2:40pm 16 26 mph 1009.5mb 15f
2:30pm 15 26 mph 1009.8mb 15f
2:20pm 18 28 mph 1009.5mb 15f
2:10pm 18 29 mph 1009.5mb 15f
2:00pm 21 30 mph 1009.1mb 15f
1:50pm 17 26 mph 1009.1mb 15f
1:40pm 17 24 mph 1008.8mb 15f
1:30pm 17 26 mph 1009.1mb 15f
1:20pm 17 28 mph 1009.1mb 15f
1:10pm 14 26 mph 1009.1mb 15f
1:00pm 15 23 mph 1008.8mb 15f
12:50pm 13 31 mph 1009.1mb 15f
12:40pm 13 29 mph 1009.1mb 15f
12:30pm 14 25 mph 1008.8mb 15f
12:20pm 14 22 mph 1009.1mb 14f
12:10pm 10 23 mph 1009.1mb 15f
12:00pm 16 29 mph 1008.8mb 14f
11:50am 15 26 mph 1008.8mb 14f
11:40am 15 26 mph 1008.8mb 14f
11:30am 15 30 mph 1008.8mb 14f
11:20am 17 28 mph 1008.8mb 13f
11:10am 18 26 mph 1008.8mb 14f
11:00am 15 28 mph 1009.1mb 15f
10:50am 20 33 mph 1009.1mb 14f
10:40am 21 28 mph 1009.1mb 14f
10:30am 16 31 mph 1009.1mb 15f
10:20am 18 34 mph 1009.1mb 15f
10:10am 18 33 mph 1009.1mb 15f
10:00am 22 28 mph 1009.1mb 15f
9:50am 20 31 mph 1009.1mb 15f
9:40am 20 31 mph 1009.1mb 15f
9:30am 17 31 mph 1009.1mb 15f
9:20am 18 30 mph 1009.1mb 15f
9:10am 20 26 mph 1009.1mb 15f
9:00am 16 30 mph 1008.8mb 15f
8:50am 17 28 mph 1008.8mb 16f
8:40am 23 31 mph 1008.8mb 16f
8:30am 18 26 mph 1008.8mb 16f
8:20am 14 23 mph 1008.5mb 16f
8:10am 15 29 mph 1008.5mb 16f
8:00am 16 28 mph 1008.1mb 16f
7:50am 18 29 mph 1008.1mb 16f
7:40am 15 34 mph 1008.1mb 16f
7:30am 17 25 mph 1008.1mb 16f
7:20am 10 20 mph 1008.1mb 17f
7:10am 14 22 mph 1008.1mb 17f
7:00am 15 22 mph 1007.8mb 17f
6:50am 16 31 mph 1007.8mb 18f
6:40am 21 28 mph 1007.5mb 18f
6:30am 15 24 mph 1007.5mb 18f
6:20am 16 24 mph 1007.1mb 19f
6:10am 16 26 mph 1007.1mb 19f
6:00am 17 30 mph 1006.8mb 19f
5:50am 16 30 mph 1006.8mb 19f
5:40am 20 26 mph 1006.8mb 19f
5:30am 16 28 mph 1006.4mb 20f
5:20am 18 28 mph 1006.1mb 20f
5:10am 18 36 mph 1006.1mb 21f
5:00am 18 29 mph 1005.8mb 21f
4:50am 21 29 mph 1005.8mb 21f
4:40am 17 30 mph 1005.8mb 21f
4:30am 20 30 mph 1005.4mb 22f
4:20am 20 32 mph 1005.4mb 22f
4:10am 20 28 mph 1005.4mb 24f
4:00am 16 32 mph 1005.1mb 24f
3:50am 20 31 mph 1004.7mb 24f
3:40am 22 32 mph 1004.7mb 25f
3:30am 22 30 mph 1004.1mb 26f
3:20am 17 26 mph 1004.7mb 26f
3:10am 15 28 mph 1004.7mb 27f
3:00am 17 24 mph 1004.4mb 27f
2:50am 11 21 mph 1004.4mb 27f
2:40am 17 23 mph 1004.1mb 28f
2:30am 9 21 mph 1004.4mb 28f
2:20am 18 25 mph 1003.7mb 28f
2:10am 13 22 mph 1004.1mb 28f
2:00am 13 21 mph 1003.7mb 28f
1:50am 11 18 mph 1003.7mb 28f
1:40am 14 22 mph 1003.7mb 28f
1:30am 9 17 mph 1003.4mb 28f
1:20am 13 18 mph 1003.4mb 28f
1:10am 10 14 mph 1003.4mb 29f
1:00am 11 16 mph 1003.4mb 29f
12:50am 13 16 mph 1003.4mb 28f
12:40am 10 17 mph 1003.4mb 28f
12:30am 10 14 mph 1003.4mb 28f
12:20am 8 16 mph 1003.4mb 29f
12:10am 10 16 mph 1003.4mb 29f
12:00am 10 15 mph 1003.4mb 29f
Mon 12/11 11:50pm 11 16 mph 1003.4mb 29f
11:40pm 7 11 mph 1003.7mb 29f
11:30pm 7 13 mph 1004.1mb 29f
11:20pm 6 11 mph 1004.1mb 29f
11:10pm 8 13 mph 1004.4mb 29f
11:00pm 6 10 mph 1004.4mb 29f
10:50pm 7 9 mph 1004.7mb 29f
10:40pm 3 10 mph 1004.7mb 29f
10:30pm 6 10 mph 1005.1mb 29f
10:20pm 7 9 mph 1005.1mb 29f
10:10pm 3 5 mph 1005.1mb 29f
10:00pm 3 5 mph 1005.4mb 29f
9:50pm 2 3 mph 1005.4mb 28f
9:40pm 3 5 mph 1005.4mb 28f
9:30pm 3 5 mph 1005.8mb 28f
9:20pm 3 5 mph 1005.8mb 28f
9:10pm 3 8 mph 1005.8mb 28f
9:00pm 8 10 mph 1005.8mb 28f
8:50pm 6 8 mph 1006.1mb 28f
8:40pm 5 7 mph 1006.4mb 29f
8:30pm 2 8 mph 1006.4mb 28f
8:20pm 7 13 mph 1006.4mb 29f
8:10pm 10 13 mph 1006.4mb 29f
8:00pm 10 13 mph 1006.8mb 29f
7:50pm 11 16 mph 1006.8mb 29f
7:40pm 11 16 mph 1006.8mb 29f
7:30pm 11 15 mph 1007.1mb 29f
7:20pm 9 15 mph 1007.1mb 29f
7:10pm 10 15 mph 1007.1mb 29f
7:00pm 10 16 mph 1007.5mb 28f
6:50pm 10 15 mph 1007.5mb 29f
6:40pm 9 14 mph 1007.8mb 29f
6:30pm 11 15 mph 1007.8mb 29f
6:20pm 11 17 mph 1008.1mb 28f
6:10pm 13 16 mph 1008.1mb 28f
6:00pm 15 18 mph 1008.1mb 28f
5:50pm 14 20 mph 1008.1mb 28f
5:40pm 11 17 mph 1008.5mb 28f
5:30pm 15 20 mph 1008.5mb 28f
5:20pm 15 21 mph 1008.5mb 28f
5:10pm 16 22 mph 1008.5mb 28f
5:00pm 16 18 mph 1008.5mb 28f
4:50pm 16 18 mph 1008.8mb 28f
4:40pm 14 17 mph 1009.1mb 28f
4:30pm 13 17 mph 1009.1mb 28f
4:20pm 11 16 mph 1009.5mb 28f
4:10pm 13 16 mph 1009.5mb 28f
4:00pm 14 18 mph 1009.8mb 27f
3:50pm 14 18 mph 1009.8mb 28f
3:40pm 15 20 mph 1010.2mb 28f
3:30pm 13 20 mph 1010.2mb 27f
3:20pm 16 23 mph 1010.2mb 28f
3:10pm 17 22 mph 1010.2mb 27f
3:00pm 17 21 mph 1010.5mb 27f
2:50pm 16 23 mph 1010.5mb 27f
2:40pm 16 20 mph 1010.5mb 27f
2:30pm 16 20 mph 1010.8mb 27f
2:20pm 18 20 mph 1010.8mb 26f
2:10pm 16 18 mph 1011.2mb 26f
2:00pm 15 17 mph 1011.2mb 25f
1:50pm 14 17 mph 1011.5mb 24f
1:40pm 14 16 mph 1011.5mb 24f
1:30pm 13 15 mph 1011.5mb 23f
1:20pm 10 14 mph 1011.9mb 23f
1:10pm 9 11 mph 1012.5mb 22f
1:00pm 7 9 mph 1012.9mb 22f
12:50pm 3 5 mph 1012.9mb 22f
12:40pm 3 3 mph 1012.9mb 22f
12:30pm 3 3 mph 1013.2mb 21f
12:20pm  -  2 mph 1013.2mb 21f
12:10pm  -  0 mph 1013.2mb 22f
12:00pm 1 3 mph 1013.9mb 22f
11:50am 2 3 mph 1014.2mb 21f
11:40am 2 3 mph 1014.9mb 20f
11:30am 3 5 mph 1014.9mb 20f
11:20am 3 5 mph 1015.2mb 21f
11:10am 2 3 mph 1015.2mb 21f
11:00am 3 3 mph 1015.2mb 21f
10:50am 3 5 mph 1015.6mb 21f
10:40am 3 5 mph 1015.9mb 20f
10:30am 3 8 mph 1015.9mb 20f
10:20am 5 7 mph 1015.9mb 20f
10:10am 3 6 mph 1015.9mb 20f
10:00am 2 3 mph 1015.9mb 20f
9:50am  -  3 mph 1016.3mb 19f
9:40am 2 3 mph 1016.3mb 19f
9:30am 3 3 mph 1016.9mb 19f
9:20am 3 3 mph 1016.9mb 19f
9:10am 3 5 mph 1017.3mb 19f
9:00am 2 5 mph 1016.9mb 19f
8:50am 3 6 mph 1017.3mb 19f
8:40am 2 3 mph 1016.9mb 19f
8:30am 2 3 mph 1016.6mb 18f
8:20am 2 3 mph 1016.6mb 18f
8:10am 2 3 mph 1016.6mb 17f
8:00am 2 3 mph 1016.6mb 16f
7:50am 2 3 mph 1016.9mb 16f
7:40am 3 3 mph 1017.3mb 16f
7:30am 3 5 mph 1017.6mb 16f
7:20am 3 5 mph 1017.6mb 15f
7:10am 3 5 mph 1017.6mb 15f
7:00am 3 5 mph 1017.6mb 15f
6:50am 3 5 mph 1017.3mb 15f
6:40am 3 5 mph 1017.3mb 14f
6:30am 3 5 mph 1017.3mb 14f
6:20am 3 3 mph 1017.3mb 14f
6:10am 3 3 mph 1016.9mb 13f
6:00am 3 3 mph 1016.9mb 13f
5:50am 3 3 mph 1016.9mb 13f
5:40am 3 3 mph 1016.9mb 13f
5:30am 3 3 mph 1016.9mb 14f
5:20am 3 5 mph 1017.3mb 14f
5:10am 3 5 mph 1017.3mb 14f
5:00am 3 5 mph 1017.6mb 14f
4:50am 3 5 mph 1017.6mb 14f
4:40am 3 5 mph 1017.6mb 14f
4:30am 3 5 mph 1017.3mb 14f
4:20am 3 5 mph 1017.3mb 14f
4:10am 3 5 mph 1017.3mb 15f
4:00am 3 5 mph 1017.6mb 15f
3:50am 3 5 mph 1017.3mb 15f
3:40am 3 5 mph 1017.6mb 15f
3:30am 3 5 mph 1017.3mb 16f
3:20am 3 7 mph 1017.3mb 16f
3:10am 3 6 mph 1017.3mb 16f
3:00am 3 5 mph 1017.3mb 17f
2:50am 3 5 mph 1016.9mb 17f
2:40am 3 10 mph 1017.3mb 18f
2:30am 8 13 mph 1016.9mb 18f
2:20am 6 11 mph 1016.9mb 19f
2:10am 8 13 mph 1016.9mb 19f
2:00am 10 15 mph 1016.9mb 19f
1:50am 11 17 mph 1016.6mb 20f
1:40am 15 20 mph 1016.3mb 21f
1:30am 15 21 mph 1016.3mb 21f
1:20am 10 18 mph 1016.3mb 21f
1:10am 11 21 mph 1015.9mb 21f
1:00am 15 22 mph 1015.9mb 22f
12:50am 17 21 mph 1015.6mb 22f
12:40am 14 18 mph 1015.6mb 23f
12:30am 15 23 mph 1015.9mb 23f
12:20am 17 22 mph 1015.6mb 23f
12:10am 17 23 mph 1015.6mb 24f
12:00am 11 16 mph 1015.6mb 24f
Sun 12/10 11:50pm 11 17 mph 1015.2mb 24f
11:40pm 13 16 mph 1015.6mb 24f
11:30pm 13 21 mph 1015.2mb 24f
11:20pm 9 17 mph 1015.2mb 24f
11:10pm 10 16 mph 1015.2mb 24f
11:00pm 10 20 mph 1014.9mb 24f
10:50pm 11 22 mph 1014.9mb 25f
10:40pm 7 20 mph 1014.6mb 26f
10:30pm 15 21 mph 1014.6mb 26f
10:20pm 13 17 mph 1014.2mb 26f
10:10pm 10 16 mph 1014.2mb 26f
10:00pm 5 11 mph 1014.2mb 26f
9:50pm 5 8 mph 1014.2mb 26f
9:40pm 5 11 mph 1013.9mb 26f
9:30pm 6 11 mph 1013.9mb 26f
9:20pm 6 15 mph 1013.5mb 26f
9:10pm 10 15 mph 1013.5mb 26f
9:00pm 8 11 mph 1013.9mb 26f
8:50pm 8 13 mph 1013.9mb 26f
8:40pm 7 14 mph 1013.9mb 26f
8:30pm 7 15 mph 1013.9mb 26f
8:20pm 9 14 mph 1013.9mb 26f
8:10pm 10 14 mph 1013.9mb 26f
8:00pm 9 14 mph 1013.9mb 26f
7:50pm 8 15 mph 1013.5mb 26f
7:40pm 9 15 mph 1013.5mb 26f
7:30pm 9 16 mph 1013.5mb 26f
7:20pm 10 15 mph 1013.5mb 26f
7:10pm 9 14 mph 1013.5mb 26f
7:00pm 10 16 mph 1013.2mb 25f
6:50pm 10 16 mph 1013.2mb 25f
6:40pm 10 15 mph 1012.9mb 25f
6:30pm 10 16 mph 1012.9mb 26f
6:20pm 11 16 mph 1012.9mb 25f
6:10pm 10 15 mph 1012.9mb 25f
6:00pm 7 13 mph 1012.9mb 26f
5:50pm 8 17 mph 1012.5mb 25f
5:40pm 10 14 mph 1012.5mb 25f
5:30pm 8 15 mph 1012.5mb 25f
5:20pm 10 13 mph 1012.2mb 26f
5:10pm 7 11 mph 1012.2mb 25f
5:00pm 7 11 mph 1012.5mb 26f
4:50pm 7 11 mph 1012.2mb 26f
4:40pm 7 10 mph 1012.2mb 26f
4:30pm 3 7 mph 1012.2mb 26f
4:20pm 3 7 mph 1012.2mb 26f
4:10pm 3 13 mph 1011.9mb 26f
4:00pm 6 11 mph 1011.9mb 26f
3:50pm 7 10 mph 1011.5mb 26f
3:40pm 3 5 mph 1011.5mb 26f
3:30pm 3 6 mph 1011.5mb 26f
3:20pm 3 9 mph 1011.5mb 26f
3:10pm 6 11 mph 1011.5mb 26f
3:00pm 6 13 mph 1011.5mb 26f
2:50pm 7 15 mph 1011.2mb 26f
2:40pm 8 15 mph 1011.2mb 27f
2:30pm 9 15 mph 1011.2mb 27f
2:20pm 9 15 mph 1011.2mb 27f
2:10pm 9 14 mph 1010.8mb 27f
2:00pm 11 21 mph 1010.8mb 27f
1:50pm 14 18 mph 1010.8mb 27f
1:40pm 14 17 mph 1010.5mb 27f
1:30pm 8 14 mph 1010.5mb 28f
1:20pm 7 13 mph 1010.5mb 28f
1:10pm 7 15 mph 1010.5mb 28f
1:00pm 8 15 mph 1010.5mb 28f
12:50pm 11 15 mph 1010.5mb 27f
12:40pm 10 16 mph 1010.5mb 27f
12:30pm 13 21 mph 1010.8mb 27f
12:20pm 9 17 mph 1010.8mb 27f
12:10pm 7 17 mph 1010.8mb 27f
12:00pm 9 16 mph 1010.8mb 27f
11:50am 13 18 mph 1010.8mb 27f
11:40am 8 15 mph 1010.8mb 27f
11:30am 10 20 mph 1011.2mb 27f
11:20am 9 17 mph 1011.2mb 27f
11:10am 10 18 mph 1011.2mb 27f
11:00am 8 14 mph 1011.5mb 27f
10:50am 11 18 mph 1011.5mb 27f
10:40am 8 16 mph 1011.9mb 27f
10:30am 10 15 mph 1011.9mb 27f
10:20am 10 15 mph 1011.9mb 27f
10:10am 13 16 mph 1011.9mb 27f
10:00am 9 13 mph 1011.9mb 26f
9:50am 10 16 mph 1011.9mb 26f
9:40am 10 16 mph 1011.9mb 26f
9:30am 8 14 mph 1011.9mb 26f
9:20am 6 15 mph 1011.9mb 26f
9:10am 7 13 mph 1011.9mb 26f
9:00am 8 14 mph 1011.9mb 26f
8:50am 7 13 mph 1011.9mb 26f
8:40am 7 11 mph 1011.9mb 25f
8:30am 7 10 mph 1011.9mb 26f
8:20am 5 11 mph 1011.9mb 25f
8:10am 6 10 mph 1011.9mb 25f
7:00am 5 9 mph 1012.2mb 24f
6:50am 3 7 mph 1012.2mb 24f
6:40am 3 6 mph 1012.2mb 24f
6:30am 6 11 mph 1012.2mb 24f
6:20am 3 9 mph 1012.2mb 23f
6:10am 3 6 mph 1012.2mb 23f
6:00am 3 6 mph 1012.2mb 23f
5:50am 5 7 mph 1012.2mb 23f
5:40am 6 9 mph 1012.2mb 23f
5:30am 3 8 mph 1012.2mb 23f
5:20am 3 8 mph 1012.2mb 23f
5:10am 3 6 mph 1012.2mb 23f
5:00am 3 5 mph 1012.2mb 23f
4:50am 3 5 mph 1012.2mb 23f
4:40am 3 5 mph 1011.9mb 22f
4:30am 3 7 mph 1012.2mb 22f
4:20am 6 9 mph 1012.2mb 22f
4:10am 6 9 mph 1012.2mb 22f
4:00am 3 3 mph 1012.2mb 21f
3:50am 3 3 mph 1012.2mb 21f
3:40am 3 5 mph 1012.2mb 20f
3:30am 2 3 mph 1012.2mb 20f
3:20am 2 3 mph 1012.2mb 20f
3:10am 3 3 mph 1012.2mb 21f
3:00am 3 5 mph 1012.5mb 20f
2:50am 3 5 mph 1012.5mb 20f
2:40am 3 3 mph 1012.5mb 20f
2:30am 3 3 mph 1012.5mb 20f
2:20am 2 3 mph 1012.5mb 21f
2:10am 2 3 mph 1012.2mb 21f
2:00am 3 6 mph 1012.2mb 22f
1:50am 2 8 mph 1012.5mb 22f
1:40am 2 3 mph 1012.2mb 23f
1:30am 2 5 mph 1012.5mb 23f
1:20am 3 6 mph 1012.5mb 23f
1:10am 7 13 mph 1012.5mb 24f
1:00am 9 14 mph 1012.2mb 24f
12:50am 10 20 mph 1012.2mb 25f
12:40am 10 16 mph 1012.2mb 25f
12:30am 6 13 mph 1012.2mb 26f
12:20am 3 8 mph 1012.2mb 26f
12:10am 5 11 mph 1012.2mb 26f
12:00am 6 9 mph 1011.9mb 26f
Sat 12/09 11:50pm 5 9 mph 1011.9mb 26f
11:40pm 6 11 mph 1011.9mb 26f
11:30pm 8 16 mph 1011.9mb 26f
11:20pm 11 20 mph 1011.5mb 26f
11:10pm 13 18 mph 1011.5mb 26f
11:00pm 13 20 mph 1011.5mb 27f
10:50pm 13 21 mph 1011.5mb 27f
10:40pm 10 22 mph 1011.5mb 27f
10:30pm 11 20 mph 1011.5mb 27f
10:20pm 10 15 mph 1011.2mb 27f
10:10pm 10 16 mph 1011.2mb 27f
10:00pm 7 14 mph 1011.2mb 28f
9:50pm 8 15 mph 1011.2mb 28f
9:40pm 10 17 mph 1010.8mb 28f
9:30pm 13 22 mph 1010.8mb 28f
9:20pm 16 28 mph 1010.8mb 28f
9:10pm 15 23 mph 1010.5mb 29f
9:00pm 14 18 mph 1010.5mb 30f
8:50pm 15 20 mph 1010.2mb 30f
8:40pm 11 18 mph 1010.2mb 30f
8:30pm 14 22 mph 1010.2mb 30f
8:20pm 14 24 mph 1009.8mb 30f
8:10pm 15 22 mph 1009.8mb 30f
8:00pm 13 20 mph 1009.8mb 30f
7:50pm 13 21 mph 1009.8mb 30f
7:40pm 13 17 mph 1009.5mb 29f
7:30pm 8 13 mph 1009.5mb 29f
7:20pm 8 15 mph 1009.5mb 28f
7:10pm 10 17 mph 1009.5mb 28f
7:00pm 8 11 mph 1009.5mb 28f
6:50pm 3 10 mph 1009.5mb 28f
6:40pm 7 11 mph 1009.5mb 28f
6:30pm 7 11 mph 1009.5mb 27f
6:20pm 7 10 mph 1009.5mb 27f
6:10pm 6 10 mph 1009.5mb 27f
6:00pm 6 9 mph 1009.5mb 27f
5:50pm 6 7 mph 1009.5mb 27f
5:40pm 5 6 mph 1009.5mb 27f
5:30pm 3 9 mph 1009.5mb 27f
5:20pm 3 6 mph 1009.5mb 27f
5:10pm 2 7 mph 1009.5mb 27f
5:00pm 2 6 mph 1009.5mb 27f
4:50pm  -  6 mph 1009.5mb 27f
4:40pm  -  3 mph 1009.5mb 27f
4:30pm  -  2 mph 1009.1mb 27f
4:20pm  -  5 mph 1009.1mb 27f
4:10pm 1 3 mph 1009.1mb 27f
4:00pm  -  6 mph 1008.8mb 27f
3:50pm 1 5 mph 1008.8mb 27f
3:40pm 2 7 mph 1008.8mb 27f
3:30pm 3 7 mph 1008.5mb 27f
3:20pm 5 7 mph 1008.5mb 27f
3:10pm 5 6 mph 1008.5mb 27f
3:00pm 3 10 mph 1008.1mb 28f
2:50pm 6 11 mph 1008.1mb 28f
2:40pm 5 9 mph 1007.8mb 28f
2:30pm 6 8 mph 1007.8mb 28f
2:20pm 3 6 mph 1007.5mb 29f
2:10pm 5 7 mph 1007.5mb 29f
2:00pm 2 7 mph 1007.5mb 29f
1:50pm 3 6 mph 1007.1mb 29f
1:40pm 1 7 mph 1007.1mb 29f
1:30pm 1 7 mph 1007.1mb 29f
1:20pm 2 5 mph 1007.1mb 29f
1:10pm 3 6 mph 1007.1mb 29f
1:00pm 5 7 mph 1007.1mb 28f
12:50pm 1 6 mph 1007.1mb 29f
12:40pm 3 8 mph 1007.1mb 28f
12:30pm 6 11 mph 1007.1mb 28f
12:20pm 7 10 mph 1007.1mb 29f
12:10pm 5 8 mph 1007.1mb 29f
12:00pm 5 6 mph 1007.1mb 28f
11:50am 3 8 mph 1007.5mb 28f
11:40am 5 8 mph 1007.5mb 28f
11:30am 5 8 mph 1007.5mb 28f
11:20am 5 6 mph 1007.5mb 28f
11:10am 1 6 mph 1007.5mb 28f
11:00am 5 8 mph 1007.8mb 28f
10:50am 3 7 mph 1007.8mb 27f
10:40am 6 10 mph 1007.8mb 27f
10:30am 6 9 mph 1008.1mb 27f
10:20am 5 7 mph 1008.1mb 27f
10:10am 5 9 mph 1008.1mb 26f
10:00am 6 9 mph 1008.1mb 26f
9:50am 1 6 mph 1008.1mb 27f
9:40am 2 6 mph 1008.5mb 26f
9:30am 2 5 mph 1008.5mb 26f
9:20am  -  5 mph 1008.1mb 26f
9:10am 2 6 mph 1008.1mb 26f
9:00am  -  2 mph 1008.1mb 26f
8:50am  -  5 mph 1008.1mb 26f
8:40am  -  5 mph 1008.1mb 26f
8:30am 1 5 mph 1008.1mb 26f
8:20am 2 5 mph 1008.1mb 25f
8:10am 2 5 mph 1008.1mb 25f
8:00am  -  3 mph 1008.1mb 25f
7:50am  -  0 mph 1008.1mb 25f
7:40am  -  2 mph 1008.1mb 24f
7:30am  -  2 mph 1008.1mb 25f
7:20am  -  3 mph 1008.1mb 25f
7:10am  -  0 mph 1008.1mb 25f
7:00am  -  2 mph 1008.1mb 25f
6:50am  -  2 mph 1008.1mb 25f
6:40am  -  1 mph 1007.8mb 25f
6:30am  -  5 mph 1008.1mb 25f
6:20am  -  2 mph 1008.1mb 25f
6:10am  -  0 mph 1008.1mb 25f
6:00am  -  0 mph 1008.1mb 25f
5:50am  -  0 mph 1008.1mb 25f
5:40am  -  3 mph 1008.1mb 25f
5:30am  -  0 mph 1008.1mb 25f
5:20am  -  3 mph 1008.1mb 25f
5:10am 2 6 mph 1008.1mb 25f
5:00am 3 6 mph 1007.8mb 25f
4:50am 3 6 mph 1007.8mb 25f
4:40am 2 7 mph 1007.8mb 25f
4:30am 3 8 mph 1008.1mb 26f
4:20am 3 7 mph 1008.1mb 25f
4:10am 3 7 mph 1008.5mb 26f
4:00am 3 8 mph 1008.5mb 26f
3:50am 6 8 mph 1008.5mb 25f
3:40am 5 10 mph 1008.5mb 26f
3:30am 7 10 mph 1008.5mb 26f
3:20am 6 9 mph 1008.8mb 26f
3:10am 6 10 mph 1008.8mb 26f
3:00am 7 15 mph 1008.8mb 26f
2:50am 10 17 mph 1009.1mb 27f
2:40am 13 18 mph 1009.1mb 27f
2:30am 9 14 mph 1008.8mb 29f
2:20am 6 8 mph 1009.1mb 30f
2:10am 3 8 mph 1008.8mb 30f
2:00am 6 8 mph 1009.1mb 30f
1:50am 6 9 mph 1008.8mb 30f
1:40am 8 10 mph 1008.8mb 30f
1:30am 9 13 mph 1008.8mb 30f
1:20am 10 14 mph 1008.8mb 30f
1:10am 13 16 mph 1008.8mb 30f
1:00am 11 14 mph 1008.8mb 30f
12:50am 11 15 mph 1008.8mb 30f
12:40am 13 15 mph 1008.8mb 31f
12:30am 9 10 mph 1008.8mb 30f
12:20am 8 10 mph 1008.8mb 30f
12:10am 8 11 mph 1009.1mb 30f